Time_in_sec,Latitude,Longitude,Altitude,Nbsat,valid_data
1312471379.48733878,47.37609863,8.55032539,574.91729736,5,1
1312471458.74430847,47.37621307,8.55026722,543.11096191,5,1
1312471458.79545760,47.37621307,8.55026722,542.98651123,5,1
1312471458.84329224,47.37621307,8.55026722,543.34808350,5,1
1312471458.89540315,47.37621307,8.55026722,543.22509766,5,1
1312471458.94330430,47.37621307,8.55026722,543.10205078,5,1
1312471458.99540067,47.37621307,8.55026722,542.97900391,5,1
1312471459.04430938,47.37621307,8.55026722,542.85583496,5,1
1312471459.09610152,47.37621307,8.55026817,543.21948242,5,1
1312471459.14432454,47.37621307,8.55026817,543.09777832,5,1
1312471459.19540167,47.37621307,8.55026817,542.97601318,5,1
1312471459.24329519,47.37621307,8.55026817,542.85424805,5,1
1312471459.29531527,47.37621307,8.55026817,542.73242188,5,1
1312471459.34328842,47.37621307,8.55026913,543.11132812,5,1
1312471459.39531636,47.37621307,8.55026913,542.99096680,5,1
1312471459.44330859,47.37621307,8.55026913,542.87054443,5,1
1312471459.49725938,47.37621307,8.55026913,542.75012207,5,1
1312471459.54330111,47.37621307,8.55026913,542.62957764,5,1
1312471459.59540200,47.37621307,8.55026913,543.02526855,5,1
1312471459.64333677,47.37621307,8.55026913,542.90631104,5,1
1312471459.69541574,47.37621307,8.55026913,542.78735352,5,1
1312471459.74341321,47.37621307,8.55026913,542.66833496,5,1
1312471459.79542851,47.37621307,8.55026913,542.54925537,5,1
1312471459.84446645,47.37621307,8.55027008,542.95166016,5,1
1312471459.89565992,47.37621307,8.55027008,542.83416748,5,1
1312471459.94328880,47.37621307,8.55027008,542.71661377,5,1
1312471459.99585724,47.37621307,8.55027008,542.59899902,5,1
1312471460.04329896,47.37621307,8.55027008,542.48138428,5,1
1312471460.09529734,47.37621307,8.55027008,542.89758301,5,1
1312471460.14338946,47.37621307,8.55027008,542.78149414,5,1
1312471460.19543743,47.37621307,8.55027008,542.66540527,5,1
1312471460.24344945,47.37621307,8.55027008,542.54931641,5,1
1312471460.29755235,47.37621307,8.55027008,542.43310547,5,1
1312471460.34330559,47.37621307,8.55027008,542.86688232,5,1
1312471460.39531994,47.37621307,8.55027008,542.75238037,5,1
1312471460.44330740,47.37621307,8.55027008,542.63781738,5,1
1312471460.49529433,47.37621307,8.55027008,542.52325439,5,1
1312471460.54330087,47.37621307,8.55027008,542.40863037,5,1
1312471460.59241343,47.37621307,8.55027103,542.85400391,5,1
1312471460.64330053,47.37621307,8.55027103,542.74108887,5,1
1312471460.69254088,47.37621307,8.55027103,542.62817383,5,1
1312471460.74329710,47.37621307,8.55027103,542.51513672,5,1
1312471460.79536200,47.37621307,8.55027103,542.40209961,5,1
1312471460.84344482,47.37621307,8.55027199,542.83666992,5,1
1312471460.89637733,47.37621307,8.55027199,542.72528076,5,1
1312471460.94328499,47.37621307,8.55027199,542.61383057,5,1
1312471460.99229646,47.37621307,8.55027199,542.50231934,5,1
1312471461.04739809,47.37621307,8.55027199,542.39080811,5,1
1312471461.09528375,47.37621307,8.55027294,542.82543945,5,1
1312471461.14331985,47.37621307,8.55027294,542.71551514,5,1
1312471461.19643140,47.37621307,8.55027294,542.60552979,5,1
1312471461.24328303,47.37621307,8.55027294,542.49554443,5,1
1312471461.29646254,47.37621307,8.55027294,542.38549805,5,1
1312471461.34327817,47.37621307,8.55027390,542.83612061,5,1
1312471461.39646459,47.37621307,8.55027390,542.72778320,5,1
1312471461.44340324,47.37621307,8.55027390,542.61932373,5,1
1312471461.49617815,47.37621307,8.55027390,542.51092529,5,1
1312471461.54341674,47.37621307,8.55027390,542.40246582,5,1
1312471461.59635520,47.37621307,8.55027485,542.85711670,5,1
1312471461.64444423,47.37621307,8.55027485,542.75030518,5,1
1312471461.69534969,47.37621307,8.55027485,542.64349365,5,1
1312471461.74431300,47.37621307,8.55027485,542.53662109,5,1
1312471461.79697680,47.37621307,8.55027485,542.42962646,5,1
1312471461.84330940,47.37621307,8.55027485,542.89410400,5,1
1312471461.89532065,47.37621307,8.55027485,542.78887939,5,1
1312471461.94343877,47.37621307,8.55027485,542.68359375,5,1
1312471461.99530268,47.37621307,8.55027485,542.57824707,5,1
1312471462.04340434,47.37621307,8.55027485,542.47290039,5,1
1312471462.09643126,47.37621307,8.55027580,542.94982910,5,1
1312471462.14341354,47.37621307,8.55027580,542.84619141,5,1
1312471462.19529939,47.37621307,8.55027580,542.74243164,5,1
1312471462.24332643,47.37621307,8.55027580,542.63867188,5,1
1312471462.29527497,47.37621307,8.55027580,542.53491211,5,1
1312471462.34332466,47.37621307,8.55027676,543.02313232,5,1
1312471462.39551234,47.37621307,8.55027676,542.92108154,5,1
1312471462.44328880,47.37621307,8.55027676,542.81903076,5,1
1312471462.49540877,47.37621307,8.55027676,542.71685791,5,1
1312471462.54329300,47.37621307,8.55027676,542.61468506,5,1
1312471462.59635091,47.37621307,8.55027771,543.10375977,5,1
1312471462.64329982,47.37621307,8.55027771,543.00329590,5,1
1312471462.69495940,47.37621307,8.55027771,542.90283203,5,1
1312471462.74329448,47.37621307,8.55027771,542.80236816,5,1
1312471462.79632425,47.37621307,8.55027771,542.70178223,5,1
1312471462.84329867,47.37621307,8.55027771,543.20880127,5,1
1312471462.89644718,47.37621307,8.55027771,543.11004639,5,1
1312471462.94340229,47.37621307,8.55027771,543.01123047,5,1
1312471462.99541664,47.37621307,8.55027771,542.91241455,5,1
1312471463.04454660,47.37621307,8.55027771,542.81353760,5,1
1312471463.09566283,47.37621307,8.55027866,543.32812500,5,1
1312471463.14341998,47.37621307,8.55027866,543.23101807,5,1
1312471463.19247866,47.37621307,8.55027866,543.13391113,5,1
1312471463.24360323,47.37621307,8.55027866,543.03668213,5,1
1312471463.29543376,47.37621307,8.55027866,542.93945312,5,1
1312471463.34343314,47.37621307,8.55027866,543.47570801,5,1
1312471463.39642882,47.37621307,8.55027866,543.38037109,5,1
1312471463.44342303,47.37621307,8.55027866,543.28491211,5,1
1312471463.49529576,47.37621689,8.55027866,543.18945312,5,1
1312471463.54327917,47.37621689,8.55027866,543.09399414,5,1
1312471463.59529686,47.37621307,8.55027962,543.64379883,5,1
1312471463.64328671,47.37621307,8.55027962,543.55023193,5,1
1312471463.69233513,47.37621689,8.55027962,543.45666504,5,1
1312471463.74338603,47.37621689,8.55027962,543.36297607,5,1
1312471463.79539061,47.37621689,8.55027962,543.26928711,5,1
1312471463.84332967,47.37621307,8.55027962,543.82739258,5,1
1312471463.89227629,47.37621307,8.55027962,543.73559570,5,1
1312471463.94444346,47.37621307,8.55027962,543.64379883,5,1
1312471463.99244666,47.37621689,8.55027962,543.55194092,5,1
1312471464.04340506,47.37621689,8.55027962,543.46002197,5,1
1312471464.09541345,47.37621307,8.55027962,544.02398682,5,1
1312471464.14444900,47.37621307,8.55027962,543.93395996,5,1
1312471464.19643426,47.37621307,8.55027962,543.84393311,5,1
1312471464.24526691,47.37621307,8.55027962,543.75384521,5,1
1312471464.29749727,47.37621307,8.55027962,543.66375732,5,1
1312471464.34332800,47.37621307,8.55028057,544.24414062,5,1
1312471464.39643693,47.37621307,8.55028057,544.15600586,5,1
1312471464.44334006,47.37621307,8.55028057,544.06787109,5,1
1312471464.49531865,47.37621307,8.55028057,543.97967529,5,1
1312471464.54329753,47.37621307,8.55028057,543.89141846,5,1
1312471464.59533358,47.37621307,8.55028152,544.47515869,5,1
1312471464.64440250,47.37621307,8.55028152,544.38885498,5,1
1312471464.69494152,47.37621307,8.55028152,544.30255127,5,1
1312471464.74332643,47.37621307,8.55028152,544.21624756,5,1
1312471464.79532409,47.37621307,8.55028152,544.12982178,5,1
1312471464.84445739,47.37621307,8.55028152,544.72290039,5,1
1312471464.89535069,47.37621307,8.55028152,544.63848877,5,1
1312471464.94332933,47.37621307,8.55028152,544.55407715,5,1
1312471464.99546027,47.37621307,8.55028152,544.46954346,5,1
1312471465.04564643,47.37621307,8.55028152,544.38507080,5,1
1312471465.09530258,47.37621307,8.55028152,544.98211670,5,1
1312471465.14346433,47.37621307,8.55028152,544.89953613,5,1
1312471465.19532919,47.37621307,8.55028152,544.81695557,5,1
1312471465.24328399,47.37621307,8.55028152,544.73437500,5,1
1312471465.29541159,47.37621307,8.55028152,544.65167236,5,1
1312471465.34328341,47.37621307,8.55028152,545.24926758,5,1
1312471465.39541721,47.37621307,8.55028152,545.16851807,5,1
1312471465.44329190,47.37621307,8.55028152,545.08782959,5,1
1312471465.49631834,47.37621307,8.55028152,545.00701904,5,1
1312471465.54331279,47.37621307,8.55028152,544.92620850,5,1
1312471465.59545326,47.37621307,8.55028248,545.52575684,5,1
1312471465.64340258,47.37621307,8.55028248,545.44689941,5,1
1312471465.69596958,47.37621307,8.55028248,545.36804199,5,1
1312471465.74341679,47.37621307,8.55028248,545.28906250,5,1
1312471465.79530525,47.37621307,8.55028248,545.21008301,5,1
1312471465.84340262,47.37621307,8.55028248,545.80871582,5,1
1312471465.89751625,47.37621307,8.55028248,545.73168945,5,1
1312471465.94328308,47.37621307,8.55028248,545.65460205,5,1
1312471465.98443937,47.37621307,8.55028248,545.57751465,5,1
1312471466.03580499,47.37621307,8.55028248,545.51574707,5,1
1312471466.08818007,47.37621307,8.55028343,546.13421631,5,1
1312471466.13657665,47.37621307,8.55028343,546.05902100,5,1
1312471466.18841600,47.37621307,8.55028343,545.98382568,5,1
1312471466.23633289,47.37621307,8.55028343,545.90856934,5,1
1312471466.28417635,47.37621307,8.55028343,545.83325195,5,1
1312471466.33633065,47.37621307,8.55028343,546.45397949,5,1
1312471466.38834906,47.37621307,8.55028343,546.38067627,5,1
1312471466.43527365,47.37621307,8.55028343,546.30731201,5,1
1312471466.48444724,47.37621307,8.55028343,546.23394775,5,1
1312471466.53542137,47.37621307,8.55028343,546.16052246,5,1
1312471466.58839417,47.37621307,8.55028439,546.79638672,5,1
1312471466.63650060,47.37621307,8.55028343,546.72503662,5,1
1312471466.68436050,47.37621307,8.55028343,546.65362549,5,1
1312471466.73668051,47.37621307,8.55028343,546.58221436,5,1
1312471466.78839493,47.37621307,8.55028343,546.51074219,5,1
1312471466.83639812,47.37621307,8.55028439,547.14965820,5,1
1312471466.88443065,47.37621307,8.55028439,547.08026123,5,1
1312471466.93664622,47.37621307,8.55028343,547.01080322,5,1
1312471466.98442721,47.37621307,8.55028343,546.94128418,5,1
1312471467.03658319,47.37621307,8.55028343,546.87176514,5,1
1312471467.08430815,47.37621307,8.55028343,547.51214600,5,1
1312471467.13651037,47.37621307,8.55028343,547.44464111,5,1
1312471467.18778586,47.37621307,8.55028343,547.37707520,5,1
1312471467.23636937,47.37621307,8.55028343,547.30950928,5,1
1312471467.28432369,47.37621307,8.55028343,547.24188232,5,1
1312471467.33535361,47.37621307,8.55028439,547.88269043,5,1
1312471467.38842845,47.37621307,8.55028439,547.81713867,5,1
1312471467.43630767,47.37621307,8.55028439,547.75152588,5,1
1312471467.48443675,47.37621307,8.55028439,547.68585205,5,1
1312471467.53629065,47.37621307,8.55028439,547.62017822,5,1
1312471467.58432603,47.37621307,8.55028439,548.25067139,5,1
1312471467.63529634,47.37621307,8.55028439,548.18695068,5,1
1312471467.68733597,47.37621307,8.55028439,548.12322998,5,1
1312471467.73551989,47.37621307,8.55028439,548.05944824,5,1
1312471467.78841782,47.37621307,8.55028439,547.99560547,5,1
1312471467.83604717,47.37621307,8.55028534,548.62695312,5,1
1312471467.88420391,47.37621307,8.55028439,548.56512451,5,1
1312471467.93636155,47.37621307,8.55028439,548.50323486,5,1
1312471467.98441529,47.37621307,8.55028439,548.44134521,5,1
1312471468.03683257,47.37621307,8.55028439,548.37939453,5,1
1312471468.08740640,47.37621307,8.55028534,549.02081299,5,1
1312471468.13591313,47.37621307,8.55028534,548.96087646,5,1
1312471468.18441486,47.37621307,8.55028534,548.90093994,5,1
1312471468.23637176,47.37621307,8.55028534,548.84094238,5,1
1312471468.28443193,47.37621307,8.55028534,548.78088379,5,1
1312471468.33637094,47.37621307,8.55028629,549.41577148,5,1
1312471468.38443732,47.37621307,8.55028629,549.35772705,5,1
1312471468.43565178,47.37621307,8.55028629,549.29962158,5,1
1312471468.48442841,47.37621307,8.55028629,549.24145508,5,1
1312471468.53659844,47.37621307,8.55028629,549.18328857,5,1
1312471468.58442664,47.37621307,8.55028725,549.81134033,5,1
1312471468.63629079,47.37621307,8.55028725,549.75506592,5,1
1312471468.68355584,47.37621307,8.55028725,549.69879150,5,1
1312471468.73647189,47.37621307,8.55028725,549.64251709,5,1
1312471468.78431439,47.37621307,8.55028725,549.58612061,5,1
1312471468.83639979,47.37621307,8.55028820,550.20196533,5,1
1312471468.88433146,47.37621307,8.55028820,550.14746094,5,1
1312471468.93670535,47.37621307,8.55028820,550.09289551,5,1
1312471468.98446202,47.37621307,8.55028820,550.03826904,5,1
1312471469.03629231,47.37621307,8.55028820,549.98370361,5,1
1312471469.08445263,47.37621307,8.55028915,550.62359619,5,1
1312471469.13644290,47.37621307,8.55028915,550.57098389,5,1
1312471469.19645238,47.37621307,8.55028915,550.51831055,5,1
1312471469.23652434,47.37621307,8.55028915,550.45501709,5,1
1312471469.28343821,47.37621307,8.55028915,550.41284180,5,1
1312471469.33665276,47.37620926,8.55029011,551.05078125,5,1
1312471469.38343191,47.37620926,8.55029011,551.00006104,5,1
1312471469.43681836,47.37620926,8.55029011,550.94921875,5,1
1312471469.48843646,47.37620926,8.55029011,550.89843750,5,1
1312471469.53676414,47.37621307,8.55029011,550.84753418,5,1
1312471469.58332229,47.37620926,8.55029011,551.46887207,5,1
1312471469.63534451,47.37620926,8.55029011,551.41986084,5,1
1312471469.68820119,47.37620926,8.55029011,551.37084961,5,1
1312471469.73540616,47.37620926,8.55029011,551.32177734,5,1
1312471469.78434920,47.37620926,8.55029011,551.27264404,5,1
1312471469.83662057,47.37620926,8.55029106,551.89575195,5,1
1312471469.88833332,47.37620926,8.55029106,551.84857178,5,1
1312471469.93641186,47.37620926,8.55029106,551.80133057,5,1
1312471469.98831487,47.37620926,8.55029106,551.75402832,5,1
1312471470.03638101,47.37620926,8.55029106,551.70666504,5,1
1312471470.08732677,47.37620544,8.55029106,552.32275391,5,1
1312471470.13535380,47.37620544,8.55029106,552.27734375,5,1
1312471470.18800187,47.37620544,8.55029106,552.23181152,5,1
1312471470.23530555,47.37620544,8.55029106,552.18627930,5,1
1312471470.28444219,47.37620544,8.55029106,552.14068604,5,1
1312471470.33636737,47.37620544,8.55029202,552.73010254,5,1
1312471470.38432193,47.37620544,8.55029202,552.68621826,5,1
1312471470.43629766,47.37620544,8.55029202,552.64233398,5,1
1312471470.48739862,47.37620544,8.55029202,552.59838867,5,1
1312471470.53528047,47.37620544,8.55029202,552.55438232,5,1
1312471470.58430958,47.37620544,8.55029202,553.15234375,5,1
1312471470.63640356,47.37620544,8.55029202,553.09417725,5,1
1312471470.68443036,47.37620544,8.55029202,553.05194092,5,1
1312471470.73635507,47.37620544,8.55029202,553.00964355,5,1
1312471470.78824210,47.37620544,8.55029202,552.96728516,5,1
1312471470.83635807,47.37620544,8.55029202,553.54376221,5,1
1312471470.88842845,47.37620544,8.55029202,553.50311279,5,1
1312471470.93541360,47.37620544,8.55029202,553.46252441,5,1
1312471470.98740792,47.37620544,8.55029202,553.42181396,5,1
1312471471.03637481,47.37620544,8.55029202,553.38110352,5,1
1312471471.08841872,47.37620163,8.55029297,553.94000244,5,1
1312471471.13637590,47.37620163,8.55029297,553.90093994,5,1
1312471471.18739772,47.37620163,8.55029297,553.86181641,5,1
1312471471.23645091,47.37620163,8.55029297,553.82263184,5,1
1312471471.28842926,47.37620163,8.55029297,553.78344727,5,1
1312471471.33547187,47.37620163,8.55029202,554.35034180,5,1
1312471471.38841844,47.37620163,8.55029202,554.31286621,5,1
1312471471.43541098,47.37620163,8.55029202,554.27532959,5,1
1312471471.48842430,47.37620163,8.55029202,554.23779297,5,1
1312471471.53640795,47.37620163,8.55029202,554.20019531,5,1
1312471471.58443213,47.37620163,8.55029297,554.75537109,5,1
1312471471.63639402,47.37620163,8.55029297,554.71942139,5,1
1312471471.68729639,47.37620163,8.55029297,554.68341064,5,1
1312471471.73545575,47.37620163,8.55029202,554.64733887,5,1
1312471471.78842926,47.37620163,8.55029202,554.61126709,5,1
1312471471.83673739,47.37620163,8.55029297,555.15252686,5,1
1312471471.88733125,47.37620163,8.55029297,555.11804199,5,1
1312471471.93650937,47.37620163,8.55029297,555.08349609,5,1
1312471471.98432255,47.37620163,8.55029297,555.04895020,5,1
1312471472.03641367,47.37620163,8.55029297,555.01434326,5,1
1312471472.08731079,47.37619781,8.55029297,555.53961182,5,1
1312471472.13545465,47.37619781,8.55029297,555.50653076,5,1
1312471472.18743253,47.37619781,8.55029297,555.47338867,5,1
1312471472.23630619,47.37619781,8.55029297,555.44018555,5,1
1312471472.28443003,47.37619781,8.55029297,555.40692139,5,1
1312471472.33669782,47.37619781,8.55029202,555.93585205,5,1
1312471472.38343740,47.37619781,8.55029202,555.90423584,5,1
1312471472.43533325,47.37619781,8.55029202,555.87249756,5,1
1312471472.48343754,47.37619781,8.55029202,555.84069824,5,1
1312471472.53542328,47.37619781,8.55029202,555.80889893,5,1
1312471472.58330011,47.37619781,8.55029106,556.33081055,5,1
1312471472.63541341,47.37619781,8.55029106,556.30053711,5,1
1312471472.68343616,47.37619781,8.55029106,556.27020264,5,1
1312471472.73669171,47.37619781,8.55029106,556.23980713,5,1
1312471472.79530144,47.37619781,8.55029011,556.20935059,5,1
1312471472.83628440,47.37619781,8.55029106,556.71685791,5,1
1312471472.88331318,47.37619781,8.55029106,556.69366455,5,1
1312471472.93526006,47.37619781,8.55029106,556.66461182,5,1
1312471472.99531317,47.37619781,8.55029011,556.63555908,5,1
1312471473.04430413,47.37619781,8.55029011,556.60058594,5,1
1312471473.08435202,47.37619400,8.55029106,557.10119629,5,1
1312471473.13638449,47.37619400,8.55029106,557.07897949,5,1
1312471473.18443489,47.37619400,8.55029106,557.05120850,5,1
1312471473.23652434,47.37619400,8.55029106,557.02337646,5,1
1312471473.29528475,47.37619400,8.55029106,556.99554443,5,1
1312471473.33537173,47.37619400,8.55029106,557.48034668,5,1
1312471473.38442612,47.37619400,8.55029011,557.45910645,5,1
1312471473.43532562,47.37619400,8.55029011,557.43255615,5,1
1312471473.48443913,47.37619400,8.55029011,557.40594482,5,1
1312471473.54332924,47.37619400,8.55029011,557.37933350,5,1
1312471473.58442807,47.37619400,8.55029011,557.85260010,5,1
1312471473.63569307,47.37619400,8.55029011,557.83227539,5,1
1312471473.68831921,47.37619400,8.55029011,557.80694580,5,1
1312471473.74334216,47.37619400,8.55029011,557.78149414,5,1
1312471473.78442931,47.37619400,8.55029011,557.75091553,5,1
1312471473.84330606,47.37619400,8.55029011,558.22540283,5,1
1312471473.89554548,47.37619400,8.55029011,558.19635010,5,1
1312471473.93635964,47.37619400,8.55029011,558.17211914,5,1
1312471473.98842669,47.37619400,8.55029011,558.15270996,5,1
1312471474.03643227,47.37619400,8.55029011,558.12841797,5,1
1312471474.08445358,47.37619400,8.55029011,558.58184814,5,1
1312471474.13543463,47.37619400,8.55029011,558.55877686,5,1
1312471474.18739581,47.37619400,8.55029011,558.53564453,5,1
1312471474.23540401,47.37619400,8.55029011,558.51251221,5,1
1312471474.28741217,47.37619400,8.55028915,558.48931885,5,1
1312471474.33630371,47.37619400,8.55029011,558.93115234,5,1
1312471474.38739014,47.37619400,8.55029011,558.90917969,5,1
1312471474.43610764,47.37619400,8.55029011,558.88720703,5,1
1312471474.48418522,47.37619400,8.55028915,558.86517334,5,1
1312471474.53628802,47.37619400,8.55028915,558.84307861,5,1
1312471474.58842611,47.37619019,8.55028915,559.28021240,5,1
1312471474.63527513,47.37619019,8.55028915,559.25927734,5,1
1312471474.68740463,47.37619019,8.55028915,559.23834229,5,1
1312471474.73531485,47.37619400,8.55028915,559.21734619,5,1
1312471474.78842163,47.37619400,8.55028915,559.19628906,5,1
1312471474.83627963,47.37619019,8.55028915,559.61676025,5,1
1312471474.88845801,47.37619019,8.55028820,559.59680176,5,1
1312471474.93544221,47.37619019,8.55028820,559.57678223,5,1
1312471474.99542832,47.37619019,8.55028820,559.55682373,5,1
1312471475.03628683,47.37619019,8.55028820,559.53271484,5,1
1312471475.08444715,47.37619019,8.55028915,559.94342041,5,1
1312471475.14328361,47.37619019,8.55028820,559.92437744,5,1
1312471475.18444586,47.37619019,8.55028820,559.90148926,5,1
1312471475.23628545,47.37619019,8.55028820,559.88616943,5,1
1312471475.29529667,47.37619400,8.55028820,559.86700439,5,1
1312471475.33629537,47.37619019,8.55028820,560.26507568,5,1
1312471475.38441205,47.37619019,8.55028820,560.25061035,5,1
1312471475.44343042,47.37619019,8.55028820,560.23248291,5,1
1312471475.49621201,47.37619400,8.55028725,560.21063232,5,1
1312471475.53679204,47.37619400,8.55028725,560.19238281,5,1
1312471475.59530830,47.37619019,8.55028725,560.58233643,5,1
1312471475.63640952,47.37619019,8.55028725,560.56164551,5,1
1312471475.69537091,47.37619019,8.55028725,560.54779053,5,1
1312471475.73630452,47.37619019,8.55028725,560.52703857,5,1
1312471475.79529405,47.37619019,8.55028725,560.51318359,5,1
1312471475.84329629,47.37619019,8.55028725,560.88775635,5,1
1312471475.89574218,47.37619019,8.55028725,560.87139893,5,1
1312471475.93629384,47.37619019,8.55028725,560.85491943,5,1
1312471475.99529219,47.37619019,8.55028725,560.84173584,5,1
1312471476.03930974,47.37619019,8.55028629,560.82196045,5,1
1312471476.09531212,47.37619019,8.55028629,561.19708252,5,1
1312471476.14328384,47.37619019,8.55028629,561.17834473,5,1
1312471476.19232011,47.37619019,8.55028629,561.16278076,5,1
1312471476.23627496,47.37619019,8.55028629,561.14709473,5,1
1312471476.29528594,47.37619019,8.55028629,561.13452148,5,1
1312471476.34329820,47.37619019,8.55028629,561.50555420,5,1
1312471476.39532685,47.37619019,8.55028534,561.49078369,5,1
1312471476.43535256,47.37619019,8.55028534,561.47595215,5,1
1312471476.49533367,47.37619019,8.55028534,561.46411133,5,1
1312471476.53547835,47.37619019,8.55028534,561.44622803,5,1
1312471476.59540558,47.37619019,8.55028629,561.81866455,5,1
1312471476.64340305,47.37619019,8.55028534,561.80194092,5,1
1312471476.69677067,47.37619019,8.55028534,561.78796387,5,1
1312471476.74442983,47.37619019,8.55028534,561.77392578,5,1
1312471476.79530406,47.37619019,8.55028534,561.75982666,5,1
1312471476.83550954,47.37619019,8.55028534,562.12359619,5,1
1312471476.89528632,47.37619019,8.55028534,562.11309814,5,1
1312471476.94340444,47.37619019,8.55028439,562.09722900,5,1
1312471476.99533820,47.37619019,8.55028439,562.08398438,5,1
1312471477.04340315,47.37619019,8.55028439,562.07067871,5,1
1312471477.09744334,47.37619019,8.55028439,562.42272949,5,1
1312471477.14443302,47.37619019,8.55028439,562.41040039,5,1
1312471477.19540572,47.37619019,8.55028439,562.39794922,5,1
1312471477.24340868,47.37619019,8.55028439,562.38549805,5,1
1312471477.29541063,47.37619019,8.55028439,562.37298584,5,1
1312471477.34330201,47.37619019,8.55028439,562.71411133,5,1
